Location: Champignolles
(47.0543°N, 4.5663°E)
Time: 06:24:45
(UTC+00:00)

Cosmos 923 Rocket - Pass Details

Date: 20 April 2021
Orbit: 759 x 785 km, 74.0° (Epoch: 13 May)

Event Time Altitude Azimuth Distance (km) Brightness Sun altitude
Rises 23:22:49 0° 350° (N) 3,231 8.4 -31.0°
Reaches altitude 10° 23:27:22 10° 26° (NNE) 2,303 7.1 -31.0°
Maximum altitude 23:28:43 11° 42° (NE) 2,240 6.9 -31.0°
Drops below altitude 10° 23:30:04 10° 57° (ENE) 2,303 6.8 -31.0°
Enters shadow 23:32:57 - 83° (E) 2,801 7.0 -31.1°
